カタログに戻る

NOAA 16 DEB

運用中PO
NORAD 41421·DEBRIS·🇺🇸 United States

打ち上げ Sep 21, 2000 から Vandenberg Space Force Base

Loading…

次のパス (今後24時間)

TLE

最新Source: Space-Track

元期: Sep 14, 2026, 14:40 UTC

1 41421U 00055LA  26257.61134052  .00009055  00000-0  14664-2 0  9998
2 41421  98.9435 137.1042 0026006 132.0704 228.2718 14.71294886551901

AllMySatでNOAA 16 DEBをリアルタイム追跡

Download on the App Store